TGM annuale;;;;;;;;;;;;;;;;TGM annuale;;;;;;;;;;;;;;;;TGM annuale;;;;;;;;;;;;;;
Tratta nr.179 SR429, Km 16.780, Gambassi Terme (FI) (flussi ascendente/discendente);;;;;;;;;;;;;;;;Tratta nr.179 SR429, Km 16.780, Gambassi Terme (FI) (flusso ascendente);;;;;;;;;;;;;;;;Tratta nr.179 SR429, Km 16.780, Gambassi Terme (FI) (flusso discendente);;;;;;;;;;;;;;
Anno;01 Motocicli;02 Auto e monovolume;03 Auto e monovolume con rimorchio;04 Furgoncini e camioncini;05 Camion medi;06 Camion grandi;07 Autotreni;08 Autoarticolati;09 Autobus;10 Veicoli non classificati;Totale;Feriali;Festivi;Prefestivi;;Anno;01 Motocicli;02 Auto e monovolume;03 Auto e monovolume con rimorchio;04 Furgoncini e camioncini;05 Camion medi;06 Camion grandi;07 Autotreni;08 Autoarticolati;09 Autobus;10 Veicoli non classificati;Totale;Feriali;Festivi;Prefestivi;;Anno;01 Motocicli;02 Auto e monovolume;03 Auto e monovolume con rimorchio;04 Furgoncini e camioncini;05 Camion medi;06 Camion grandi;07 Autotreni;08 Autoarticolati;09 Autobus;10 Veicoli non classificati;Totale;Feriali;Festivi;Prefestivi
2019;56;4011;11;442;124;194;79;246;18;0;5182;5555;4366;4361;;2019;29;2005;5;222;65;99;43;133;9;0;2611;2788;2289;2142;;2019;27;2006;6;220;59;95;36;113;10;0;2571;2767;2076;2219
;;;;;;;;;;;;;;;;;;;;;;;;;;;;;;;;;;;;;;;;;;;;;;
Tabella flussi 2019;;;;;;;;;;;;;;;;Tabella flussi 2019;;;;;;;;;;;;;;;;Tabella flussi 2019;;;;;;;;;;;;;;
Tratta nr.179 SR429, Km 16.780, Gambassi Terme (FI) (flussi ascendente/discendente);;;;;;;;;;;;;;;;Tratta nr.179 SR429, Km 16.780, Gambassi Terme (FI) (flusso ascendente);;;;;;;;;;;;;;;;Tratta nr.179 SR429, Km 16.780, Gambassi Terme (FI) (flusso discendente);;;;;;;;;;;;;;
;Traffico Totale;;;;;;;;;;;Traffico Med.Orario 06:00 - 20:00;Traffico Ora di punta;;;;Traffico Totale;;;;;;;;;;;Traffico Med.Orario 06:00 - 20:00;Traffico Ora di punta;;;;Traffico Totale;;;;;;;;;;;Traffico Med.Orario 06:00 - 20:00;Traffico Ora di punta;
Giorno;01 Motocicli;02 Auto e monovolume;03 Auto e monovolume con rimorchio;04 Furgoncini e camioncini;05 Camion medi;06 Camion grandi;07 Autotreni;08 Autoarticolati;09 Autobus;10 Veicoli non classificati;Totale;Totale;Ora di punta;Flusso totale ora di punta;;Giorno;01 Motocicli;02 Auto e monovolume;03 Auto e monovolume con rimorchio;04 Furgoncini e camioncini;05 Camion medi;06 Camion grandi;07 Autotreni;08 Autoarticolati;09 Autobus;10 Veicoli non classificati;Totale;Totale;Ora di punta;Flusso totale ora di punta;;Giorno;01 Motocicli;02 Auto e monovolume;03 Auto e monovolume con rimorchio;04 Furgoncini e camioncini;05 Camion medi;06 Camion grandi;07 Autotreni;08 Autoarticolati;09 Autobus;10 Veicoli non classificati;Totale;Totale;Ora di punta;Flusso totale ora di punta
01/01/2019;17;3395;3;158;6;4;1;2;5;0;3591;192;17;361;;01/01/2019;10;1929;2;106;3;4;1;1;5;0;2061;108;17;249;;01/01/2019;7;1466;1;52;3;0;0;1;0;0;1530;84;16;151
02/01/2019;6;3531;7;344;83;169;54;179;10;0;4383;275;17;422;;02/01/2019;2;1988;3;194;48;83;34;109;5;0;2466;154;17;287;;02/01/2019;4;1543;4;150;35;86;20;70;5;0;1917;121;7;171
03/01/2019;6;3263;10;381;98;216;94;194;10;0;4272;271;17;384;;03/01/2019;3;1649;6;208;53;109;55;102;2;0;2187;140;17;249;;03/01/2019;3;1614;4;173;45;107;39;92;8;0;2085;131;7;194
04/01/2019;17;3516;4;429;99;175;70;182;10;0;4502;283;17;441;;04/01/2019;4;1838;1;241;53;98;36;95;3;0;2369;150;18;290;;04/01/2019;13;1678;3;188;46;77;34;87;7;0;2133;133;7;192
05/01/2019;19;3363;6;211;33;43;9;44;4;0;3732;221;18;331;;05/01/2019;8;1760;3;116;19;23;5;21;1;0;1956;115;18;217;;05/01/2019;11;1603;3;95;14;20;4;23;3;0;1776;106;16;141
06/01/2019;6;3488;5;104;11;3;1;12;5;0;3635;211;18;387;;06/01/2019;4;1861;2;64;4;1;0;7;3;0;1946;112;18;249;;06/01/2019;2;1627;3;40;7;2;1;5;2;0;1689;100;16;165
07/01/2019;12;3282;6;413;143;217;94;272;11;0;4450;282;8;426;;07/01/2019;4;1621;3;214;78;124;45;145;5;0;2239;142;17;281;;07/01/2019;8;1661;3;199;65;93;49;127;6;0;2211;141;7;285
08/01/2019;12;3242;11;541;119;249;123;273;6;0;4576;293;7;410;;08/01/2019;5;1603;2;271;63;120;87;126;2;0;2279;147;17;248;;08/01/2019;7;1639;9;270;56;129;36;147;4;0;2297;146;7;297
09/01/2019;13;3354;11;478;144;235;109;274;9;0;4627;293;17;403;;09/01/2019;8;1651;5;249;75;125;64;165;3;0;2345;150;17;272;;09/01/2019;5;1703;6;229;69;110;45;109;6;0;2282;143;7;281
10/01/2019;12;3390;9;488;178;233;122;307;9;0;4748;304;17;408;;10/01/2019;1;1700;6;246;96;123;74;173;5;0;2424;155;17;265;;10/01/2019;11;1690;3;242;82;110;48;134;4;0;2324;148;7;296
11/01/2019;9;3649;9;490;169;223;98;276;15;0;4938;312;17;443;;11/01/2019;5;1777;4;258;93;119;57;148;6;0;2467;156;17;271;;11/01/2019;4;1872;5;232;76;104;41;128;9;0;2471;155;7;292
12/01/2019;13;3295;11;196;24;40;6;53;3;0;3641;215;17;321;;12/01/2019;4;1593;6;98;14;22;2;28;2;0;1769;105;18;171;;12/01/2019;9;1702;5;98;10;18;4;25;1;0;1872;110;17;152
13/01/2019;13;3279;9;105;11;5;1;8;3;0;3434;195;17;399;;13/01/2019;7;1672;6;53;3;1;0;3;2;0;1747;99;17;228;;13/01/2019;6;1607;3;52;8;4;1;5;1;0;1687;96;17;171
14/01/2019;17;3347;4;438;153;259;108;282;6;0;4614;297;8;429;;14/01/2019;5;1662;2;226;83;130;52;166;3;0;2329;149;17;251;;14/01/2019;12;1685;2;212;70;129;56;116;3;0;2285;147;7;288
15/01/2019;17;3390;12;548;177;322;153;317;14;0;4950;321;7;464;;15/01/2019;3;1630;3;287;91;161;88;154;9;0;2426;159;17;262;;15/01/2019;14;1760;9;261;86;161;65;163;5;0;2524;162;7;344
16/01/2019;19;3505;11;500;158;294;142;335;13;0;4977;320;8;445;;16/01/2019;6;1739;6;237;81;150;87;184;10;0;2500;162;17;273;;16/01/2019;13;1766;5;263;77;144;55;151;3;0;2477;159;7;284
17/01/2019;11;3477;12;432;153;285;124;337;6;0;4837;309;17;432;;17/01/2019;7;1715;5;220;90;151;78;172;2;0;2440;155;17;258;;17/01/2019;4;1762;7;212;63;134;46;165;4;0;2397;154;7;295
18/01/2019;9;3711;14;533;177;260;89;357;22;0;5172;322;17;436;;18/01/2019;7;1850;5;253;101;127;54;193;8;0;2598;163;18;284;;18/01/2019;2;1861;9;280;76;133;35;164;14;0;2574;159;7;283
19/01/2019;19;3300;4;197;30;35;2;31;8;0;3626;208;17;299;;19/01/2019;12;1575;2;98;13;21;2;15;3;0;1741;101;17;171;;19/01/2019;7;1725;2;99;17;14;0;16;5;0;1885;107;15;129
20/01/2019;11;3491;0;138;12;13;0;5;4;0;3674;212;17;403;;20/01/2019;5;1775;0;77;2;5;0;3;1;0;1868;106;17;250;;20/01/2019;6;1716;0;61;10;8;0;2;3;0;1806;107;16;186
21/01/2019;9;3382;6;424;140;244;96;343;8;0;4652;302;7;425;;21/01/2019;2;1673;2;224;75;126;52;182;2;0;2338;151;17;281;;21/01/2019;7;1709;4;200;65;118;44;161;6;0;2314;151;7;301
22/01/2019;9;3016;6;467;130;280;101;336;12;0;4357;284;8;402;;22/01/2019;1;1474;2;235;70;145;49;171;4;0;2151;141;17;219;;22/01/2019;8;1542;4;232;60;135;52;165;8;0;2206;142;7;284
23/01/2019;5;3017;9;414;130;254;109;308;9;0;4255;273;8;374;;23/01/2019;2;1484;4;216;69;129;67;181;1;0;2153;138;18;230;;23/01/2019;3;1533;5;198;61;125;42;127;8;0;2102;134;7;266
24/01/2019;7;3404;9;458;178;304;122;304;7;0;4793;308;17;430;;24/01/2019;2;1705;4;224;88;156;72;164;1;0;2416;155;18;263;;24/01/2019;5;1699;5;234;90;148;50;140;6;0;2377;153;7;275
25/01/2019;12;3655;10;576;158;260;112;319;12;0;5114;320;17;432;;25/01/2019;6;1787;5;294;74;131;71;162;5;0;2535;160;17;277;;25/01/2019;6;1868;5;282;84;129;41;157;7;0;2579;160;7;288
26/01/2019;19;3191;12;201;21;47;7;65;8;0;3571;208;17;274;;26/01/2019;8;1543;7;93;7;26;3;34;5;0;1726;100;18;162;;26/01/2019;11;1648;5;108;14;21;4;31;3;0;1845;107;15;131
27/01/2019;9;3186;7;101;17;6;2;4;11;0;3343;189;17;365;;27/01/2019;6;1631;3;55;7;3;1;2;7;0;1715;97;17;217;;27/01/2019;3;1555;4;46;10;3;1;2;4;0;1628;92;17;148
28/01/2019;15;3246;11;404;122;336;91;355;9;0;4589;295;8;419;;28/01/2019;3;1628;10;211;66;166;48;184;7;0;2323;149;17;265;;28/01/2019;12;1618;1;193;56;170;43;171;2;0;2266;146;7;269
29/01/2019;17;3290;4;518;190;322;117;348;11;0;4817;310;17;415;;29/01/2019;3;1653;3;245;99;161;66;186;5;0;2421;157;17;261;;29/01/2019;14;1637;1;273;91;161;51;162;6;0;2396;154;7;307
30/01/2019;9;3083;7;451;153;302;137;325;26;0;4493;293;8;418;;30/01/2019;6;1516;1;237;78;164;72;187;7;0;2268;150;18;184;;30/01/2019;3;1567;6;214;75;138;65;138;19;0;2225;143;7;279
31/01/2019;9;2902;8;367;129;229;133;267;19;0;4063;260;8;365;;31/01/2019;6;1424;3;190;66;113;79;146;6;0;2033;130;17;201;;31/01/2019;3;1478;5;177;63;116;54;121;13;0;2030;130;7;255
01/02/2019;15;3254;5;456;148;236;111;271;13;0;4509;284;17;389;;01/02/2019;5;1564;1;237;87;120;58;157;7;0;2236;142;17;237;;01/02/2019;10;1690;4;219;61;116;53;114;6;0;2273;142;7;263
02/02/2019;9;2793;6;153;33;44;5;43;5;0;3091;178;17;236;;02/02/2019;6;1345;3;76;17;23;1;22;1;0;1494;86;15;119;;02/02/2019;3;1448;3;77;16;21;4;21;4;0;1597;93;18;129
03/02/2019;3;3113;3;90;12;11;0;7;7;0;3246;187;17;335;;03/02/2019;1;1565;2;43;6;6;0;2;4;0;1629;92;18;188;;03/02/2019;2;1548;1;47;6;5;0;5;3;0;1617;95;17;161
04/02/2019;14;3388;7;420;168;331;114;324;16;0;4782;306;7;477;;04/02/2019;5;1696;6;212;78;156;65;183;8;0;2409;153;18;250;;04/02/2019;9;1692;1;208;90;175;49;141;8;0;2373;153;7;332
05/02/2019;15;3413;13;581;181;289;105;316;16;0;4929;317;8;426;;05/02/2019;8;1703;5;311;98;157;58;169;2;0;2511;162;17;268;;05/02/2019;7;1710;8;270;83;132;47;147;14;0;2418;155;7;308
06/02/2019;6;3448;12;522;156;296;114;292;14;0;4860;311;7;426;;06/02/2019;3;1669;6;255;81;160;68;159;4;0;2405;154;17;259;;06/02/2019;3;1779;6;267;75;136;46;133;10;0;2455;156;7;301
07/02/2019;16;3511;9;456;158;327;99;286;17;0;4879;312;17;438;;07/02/2019;7;1781;2;224;84;161;57;153;11;0;2480;159;17;309;;07/02/2019;9;1730;7;232;74;166;42;133;6;0;2399;153;7;294
08/02/2019;28;3770;8;594;165;327;104;297;12;0;5305;334;18;434;;08/02/2019;7;1850;4;283;98;162;54;166;5;0;2629;166;18;280;;08/02/2019;21;1920;4;311;67;165;50;131;7;0;2676;168;7;300
09/02/2019;15;3290;6;211;32;46;3;50;10;0;3663;215;17;312;;09/02/2019;6;1590;2;101;16;26;2;27;4;0;1774;103;18;144;;09/02/2019;9;1700;4;110;16;20;1;23;6;0;1889;112;17;169
10/02/2019;21;3469;5;139;10;6;0;11;5;0;3666;211;18;378;;10/02/2019;8;1742;4;81;6;2;0;7;2;0;1852;104;18;238;;10/02/2019;13;1727;1;58;4;4;0;4;3;0;1814;107;16;165
11/02/2019;15;3360;7;454;174;316;106;327;13;0;4772;306;8;433;;11/02/2019;5;1693;3;226;85;161;55;188;5;0;2421;155;17;264;;11/02/2019;10;1667;4;228;89;155;51;139;8;0;2351;150;7;312
12/02/2019;11;3340;10;526;152;272;112;328;9;0;4760;306;8;427;;12/02/2019;1;1683;5;267;82;148;64;179;1;0;2430;157;17;266;;12/02/2019;10;1657;5;259;70;124;48;149;8;0;2330;149;7;303
13/02/2019;22;3599;9;523;187;281;120;318;15;0;5074;324;8;448;;13/02/2019;7;1777;5;265;104;135;68;174;10;0;2545;162;18;266;;13/02/2019;15;1822;4;258;83;146;52;144;5;0;2529;161;8;283
14/02/2019;27;3577;10;475;170;294;107;287;10;0;4957;311;8;445;;14/02/2019;18;1765;4;228;85;153;63;150;7;0;2473;156;18;256;;14/02/2019;9;1812;6;247;85;141;44;137;3;0;2484;155;7;294
15/02/2019;15;3662;6;553;165;275;103;308;8;0;5095;320;17;462;;15/02/2019;6;1765;2;277;81;136;57;174;5;0;2503;159;17;287;;15/02/2019;9;1897;4;276;84;139;46;134;3;0;2592;162;7;273
16/02/2019;58;3175;7;219;30;45;4;48;8;0;3594;212;17;292;;16/02/2019;30;1544;3;100;15;30;2;24;1;0;1749;102;17;163;;16/02/2019;28;1631;4;119;15;15;2;24;7;0;1845;110;18;141
17/02/2019;82;3699;9;119;15;5;2;4;10;0;3945;229;18;391;;17/02/2019;34;1910;5;61;9;2;1;1;6;0;2029;117;18;248;;17/02/2019;48;1789;4;58;6;3;1;3;4;0;1916;113;16;174
18/02/2019;15;3301;7;396;185;308;86;312;19;0;4629;297;7;452;;18/02/2019;8;1618;0;198;100;157;54;183;11;0;2329;150;17;272;;18/02/2019;7;1683;7;198;85;151;32;129;8;0;2300;147;7;314
19/02/2019;18;3395;5;562;150;310;129;331;20;0;4920;317;7;425;;19/02/2019;6;1701;1;282;82;170;71;176;6;0;2495;162;17;261;;19/02/2019;12;1694;4;280;68;140;58;155;14;0;2425;155;7;307
20/02/2019;19;3423;10;501;169;282;119;325;20;0;4868;312;7;428;;20/02/2019;8;1690;9;243;97;138;66;187;11;0;2449;158;17;276;;20/02/2019;11;1733;1;258;72;144;53;138;9;0;2419;154;7;310
21/02/2019;20;3420;10;479;150;333;103;355;21;0;4891;315;17;431;;21/02/2019;6;1682;6;248;75;173;59;184;9;0;2442;159;17;268;;21/02/2019;14;1738;4;231;75;160;44;171;12;0;2449;157;7;282
22/02/2019;22;3719;10;576;169;278;98;337;9;0;5218;325;17;472;;22/02/2019;9;1836;3;290;93;151;54;190;5;0;2631;164;17;291;;22/02/2019;13;1883;7;286;76;127;44;147;4;0;2587;162;7;295
23/02/2019;35;3259;8;209;32;53;4;49;4;0;3653;209;17;271;;23/02/2019;20;1643;1;110;13;29;2;25;4;0;1847;106;19;156;;23/02/2019;15;1616;7;99;19;24;2;24;0;0;1806;103;15;136
24/02/2019;28;3525;12;109;21;3;0;8;8;0;3714;216;18;403;;24/02/2019;11;1783;7;59;8;1;0;2;4;0;1875;108;18;244;;24/02/2019;17;1742;5;50;13;2;0;6;4;0;1839;107;16;169
25/02/2019;19;3384;7;444;155;286;94;376;15;0;4780;305;8;451;;25/02/2019;7;1672;3;213;89;148;54;200;8;0;2394;153;17;241;;25/02/2019;12;1712;4;231;66;138;40;176;7;0;2386;151;7;286
26/02/2019;22;3500;6;568;173;334;126;335;16;0;5080;327;7;435;;26/02/2019;12;1731;1;295;85;170;71;192;3;0;2560;166;18;240;;26/02/2019;10;1769;5;273;88;164;55;143;13;0;2520;161;7;318
27/02/2019;14;3498;9;490;198;234;112;356;9;0;4920;314;17;437;;27/02/2019;7;1735;6;251;110;114;68;196;3;0;2490;159;17;264;;27/02/2019;7;1763;3;239;88;120;44;160;6;0;2430;155;7;289
28/02/2019;19;3361;12;521;166;286;121;403;10;0;4899;311;8;420;;28/02/2019;12;1658;6;270;88;134;74;212;4;0;2458;156;17;259;;28/02/2019;7;1703;6;251;78;152;47;191;6;0;2441;155;7;287
01/03/2019;17;3696;9;554;167;278;103;338;10;0;5172;326;17;442;;01/03/2019;6;1806;4;294;84;136;55;200;3;0;2588;164;17;275;;01/03/2019;11;1890;5;260;83;142;48;138;7;0;2584;162;7;300
02/03/2019;48;3244;12;212;40;39;5;48;8;0;3656;214;18;276;;02/03/2019;23;1608;6;104;20;21;1;23;4;0;1810;104;19;142;;02/03/2019;25;1636;6;108;20;18;4;25;4;0;1846;110;18;142
03/03/2019;84;3828;7;127;18;6;2;4;11;0;4087;236;18;409;;03/03/2019;37;1919;2;72;8;5;0;3;4;0;2050;118;18;275;;03/03/2019;47;1909;5;55;10;1;2;1;7;0;2037;118;15;190
04/03/2019;16;3446;13;452;159;246;106;378;24;0;4840;310;7;431;;04/03/2019;4;1726;7;223;80;123;57;208;12;0;2440;155;17;258;;04/03/2019;12;1720;6;229;79;123;49;170;12;0;2400;154;7;298
05/03/2019;19;3427;5;573;159;284;112;345;16;0;4940;315;7;434;;05/03/2019;9;1650;1;294;77;147;67;172;5;0;2422;155;18;246;;05/03/2019;10;1777;4;279;82;137;45;173;11;0;2518;160;7;303
06/03/2019;24;3643;6;514;184;242;135;323;23;0;5094;323;17;457;;06/03/2019;9;1818;2;254;90;138;74;171;12;0;2568;163;17;294;;06/03/2019;15;1825;4;260;94;104;61;152;11;0;2526;160;7;283
07/03/2019;16;3576;9;485;163;261;118;380;18;0;5026;320;17;437;;07/03/2019;6;1785;3;249;81;141;69;205;7;0;2546;163;17;277;;07/03/2019;10;1791;6;236;82;120;49;175;11;0;2480;156;7;308
08/03/2019;20;3969;14;570;149;255;114;336;14;0;5441;340;17;478;;08/03/2019;6;1924;6;285;78;136;59;188;6;0;2688;170;17;284;;08/03/2019;14;2045;8;285;71;119;55;148;8;0;2753;170;7;295
09/03/2019;71;3577;4;224;39;58;7;56;6;0;4042;240;17;362;;09/03/2019;43;1776;1;102;19;36;1;28;2;0;2008;117;17;209;;09/03/2019;28;1801;3;122;20;22;6;28;4;0;2034;123;10;157
10/03/2019;46;3892;6;129;27;5;1;6;8;0;4120;239;17;417;;10/03/2019;28;2028;4;76;15;4;1;2;5;0;2163;125;18;257;;10/03/2019;18;1864;2;53;12;1;0;4;3;0;1957;114;17;193
11/03/2019;19;3419;12;461;191;283;128;385;17;0;4915;315;8;448;;11/03/2019;7;1726;7;221;111;136;71;209;9;0;2497;160;17;264;;11/03/2019;12;1693;5;240;80;147;57;176;8;0;2418;155;7;292
12/03/2019;23;3582;10;624;165;279;123;321;15;0;5142;329;8;461;;12/03/2019;8;1778;8;315;80;134;79;178;8;0;2588;166;17;283;;12/03/2019;15;1804;2;309;85;145;44;143;7;0;2554;163;7;313
13/03/2019;11;3530;15;530;175;251;117;347;10;0;4986;316;8;428;;13/03/2019;8;1751;8;251;89;125;79;184;6;0;2501;159;17;276;;13/03/2019;3;1779;7;279;86;126;38;163;4;0;2485;158;7;280
14/03/2019;26;3623;7;472;158;299;96;379;9;0;5069;323;17;451;;14/03/2019;9;1772;4;238;87;155;49;202;3;0;2519;160;17;277;;14/03/2019;17;1851;3;234;71;144;47;177;6;0;2550;163;7;296
15/03/2019;33;3790;12;555;181;244;138;357;24;0;5334;335;17;439;;15/03/2019;15;1831;6;278;93;124;77;203;14;0;2641;168;17;278;;15/03/2019;18;1959;6;277;88;120;61;154;10;0;2693;167;7;289
16/03/2019;54;3486;14;219;27;46;5;58;3;0;3912;230;17;333;;16/03/2019;48;1660;8;105;14;23;1;32;1;0;1892;110;17;175;;16/03/2019;6;1826;6;114;13;23;4;26;2;0;2020;120;17;158
17/03/2019;55;3938;11;163;13;6;2;10;16;0;4214;243;18;423;;17/03/2019;36;2019;6;89;6;5;0;5;10;0;2176;122;18;278;;17/03/2019;19;1919;5;74;7;1;2;5;6;0;2038;121;17;180
18/03/2019;15;3561;10;483;172;262;108;343;22;0;4976;320;8;458;;18/03/2019;9;1774;3;232;87;120;59;180;13;0;2477;158;17;267;;18/03/2019;6;1787;7;251;85;142;49;163;9;0;2499;162;7;301
19/03/2019;18;3524;5;583;173;293;122;268;7;0;4993;320;7;433;;19/03/2019;4;1779;1;308;93;155;76;142;3;0;2561;166;18;279;;19/03/2019;14;1745;4;275;80;138;46;126;4;0;2432;154;7;310
20/03/2019;27;3484;6;501;157;244;142;361;19;0;4941;315;17;449;;20/03/2019;16;1703;4;245;88;124;76;195;10;0;2461;158;17;266;;20/03/2019;11;1781;2;256;69;120;66;166;9;0;2480;158;7;305
21/03/2019;14;3589;10;531;171;251;131;382;48;0;5127;325;17;464;;21/03/2019;6;1790;4;283;84;131;67;198;24;0;2587;165;17;290;;21/03/2019;8;1799;6;248;87;120;64;184;24;0;2540;160;7;276
22/03/2019;31;3783;7;599;182;257;117;323;21;0;5320;333;17;435;;22/03/2019;16;1776;1;303;87;121;64;174;8;0;2550;160;18;257;;22/03/2019;15;2007;6;296;95;136;53;149;13;0;2770;173;7;290
23/03/2019;93;3639;10;239;39;47;8;46;11;0;4132;242;18;324;;23/03/2019;54;1772;6;114;24;25;3;24;6;0;2028;117;18;187;;23/03/2019;39;1867;4;125;15;22;5;22;5;0;2104;125;15;169
24/03/2019;151;4237;11;132;19;2;2;14;16;0;4584;267;18;506;;24/03/2019;61;2168;7;79;9;1;1;8;7;0;2341;134;18;352;;24/03/2019;90;2069;4;53;10;1;1;6;9;0;2243;132;10;198
25/03/2019;32;3532;7;455;145;309;123;296;17;0;4916;313;8;452;;25/03/2019;17;1766;1;237;85;156;58;155;6;0;2481;158;17;272;;25/03/2019;15;1766;6;218;60;153;65;141;11;0;2435;155;7;296
26/03/2019;20;3537;8;549;162;325;102;353;19;0;5075;324;7;446;;26/03/2019;8;1747;2;277;84;154;60;188;8;0;2528;161;18;267;;26/03/2019;12;1790;6;272;78;171;42;165;11;0;2547;162;7;310
27/03/2019;24;3607;8;547;192;272;122;348;11;0;5131;329;17;442;;27/03/2019;6;1766;2;274;98;129;68;172;6;0;2521;162;18;272;;27/03/2019;18;1841;6;273;94;143;54;176;5;0;2610;167;7;284
28/03/2019;26;3810;10;578;181;322;126;400;26;0;5479;350;17;459;;28/03/2019;10;1838;4;297;97;151;61;176;12;0;2646;168;17;286;;28/03/2019;16;1972;6;281;84;171;65;224;14;0;2833;182;7;307
29/03/2019;28;3840;12;563;164;255;102;332;18;0;5314;332;17;467;;29/03/2019;17;1863;5;274;88;118;51;180;8;0;2604;163;17;297;;29/03/2019;11;1977;7;289;76;137;51;152;10;0;2710;169;7;300
30/03/2019;113;3454;15;268;38;48;5;58;8;0;4007;236;17;309;;30/03/2019;48;1710;8;124;24;25;2;26;3;0;1970;115;18;178;;30/03/2019;65;1744;7;144;14;23;3;32;5;0;2037;121;16;147
31/03/2019;100;4113;8;136;25;7;4;8;20;0;4421;252;18;442;;31/03/2019;59;2125;5;78;11;1;1;7;11;0;2298;131;18;297;;31/03/2019;41;1988;3;58;14;6;3;1;9;0;2123;121;16;191
01/04/2019;33;3697;5;419;174;263;105;323;26;0;5045;316;7;447;;01/04/2019;16;1862;4;212;81;140;53;166;14;0;2548;160;17;268;;01/04/2019;17;1835;1;207;93;123;52;157;12;0;2497;156;7;303
02/04/2019;27;3677;14;564;182;291;124;266;24;0;5169;331;17;472;;02/04/2019;15;1861;5;287;101;142;70;148;12;0;2641;170;17;289;;02/04/2019;12;1816;9;277;81;149;54;118;12;0;2528;161;7;318
03/04/2019;23;3819;11;475;174;238;118;353;36;0;5247;331;17;516;;03/04/2019;7;1903;3;233;90;127;62;185;17;0;2627;170;17;329;;03/04/2019;16;1916;8;242;84;111;56;168;19;0;2620;161;7;289
04/04/2019;14;3684;15;464;155;255;136;327;25;0;5075;321;8;427;;04/04/2019;6;1800;3;227;90;128;79;167;11;0;2511;158;17;257;;04/04/2019;8;1884;12;237;65;127;57;160;14;0;2564;163;7;302
05/04/2019;26;4011;13;548;163;269;119;307;24;0;5480;340;17;429;;05/04/2019;9;1969;5;279;86;136;66;177;14;0;2741;171;17;273;;05/04/2019;17;2042;8;269;77;133;53;130;10;0;2739;169;7;292
06/04/2019;101;3543;4;240;51;68;9;45;20;0;4081;236;17;294;;06/04/2019;45;1763;2;117;27;31;2;24;8;0;2019;115;18;157;;06/04/2019;56;1780;2;123;24;37;7;21;12;0;2062;121;15;157
07/04/2019;60;3661;5;172;18;7;1;8;24;0;3956;225;18;398;;07/04/2019;28;1869;1;84;7;5;1;3;16;0;2014;113;18;229;;07/04/2019;32;1792;4;88;11;2;0;5;8;0;1942;112;16;169
08/04/2019;25;3667;10;468;170;280;93;314;22;0;5049;319;8;446;;08/04/2019;11;1859;4;244;89;145;43;166;10;0;2571;161;17;266;;08/04/2019;14;1808;6;224;81;135;50;148;12;0;2478;158;7;305
09/04/2019;35;3713;10;550;159;293;154;298;25;0;5237;331;17;446;;09/04/2019;15;1826;2;288;78;150;96;165;13;0;2633;167;17;273;;09/04/2019;20;1887;8;262;81;143;58;133;12;0;2604;164;7;301
10/04/2019;26;3855;5;525;150;291;122;308;42;0;5324;339;17;457;;10/04/2019;12;1893;1;261;77;150;65;161;16;0;2636;168;17;298;;10/04/2019;14;1962;4;264;73;141;57;147;26;0;2688;171;7;320
11/04/2019;9;3863;10;487;188;274;127;332;48;0;5338;338;17;487;;11/04/2019;4;1923;5;254;100;153;69;181;19;0;2708;171;17;308;;11/04/2019;5;1940;5;233;88;121;58;151;29;0;2630;167;7;303
12/04/2019;25;4229;10;592;184;275;116;343;24;0;5798;366;18;473;;12/04/2019;13;2083;5;285;95;137;53;187;11;0;2869;181;18;302;;12/04/2019;12;2146;5;307;89;138;63;156;13;0;2929;185;7;301
13/04/2019;39;3810;11;249;53;57;8;42;16;0;4285;243;18;329;;13/04/2019;20;1891;5;127;29;27;4;19;10;0;2132;120;18;179;;13/04/2019;19;1919;6;122;24;30;4;23;6;0;2153;123;16;155
14/04/2019;27;3469;7;169;16;7;3;11;20;0;3729;208;18;347;;14/04/2019;6;1759;3;88;9;4;3;6;11;0;1889;103;16;187;;14/04/2019;21;1710;4;81;7;3;0;5;9;0;1840;104;18;171
15/04/2019;28;4006;9;501;151;255;106;382;20;0;5458;348;8;480;;15/04/2019;17;2006;2;274;80;136;61;204;11;0;2791;178;17;309;;15/04/2019;11;2000;7;227;71;119;45;178;9;0;2667;170;7;294
16/04/2019;40;4148;11;619;161;272;139;306;17;0;5713;362;17;480;;16/04/2019;27;2056;4;329;81;136;87;159;9;0;2888;185;17;281;;16/04/2019;13;2092;7;290;80;136;52;147;8;0;2825;177;7;311
17/04/2019;29;4353;18;558;155;264;109;328;26;0;5840;361;17;466;;17/04/2019;19;2193;8;296;80;134;69;175;13;0;2987;185;18;295;;17/04/2019;10;2160;10;262;75;130;40;153;13;0;2853;177;7;286
18/04/2019;73;4342;20;562;204;288;153;361;18;0;6021;376;17;507;;18/04/2019;36;2125;11;267;111;141;77;187;9;0;2964;186;17;293;;18/04/2019;37;2217;9;295;93;147;76;174;9;0;3057;190;7;304
19/04/2019;71;4627;22;584;157;243;55;245;17;0;6021;370;17;493;;19/04/2019;30;2136;8;264;77;116;27;117;9;0;2784;171;17;278;;19/04/2019;41;2491;14;320;80;127;28;128;8;0;3237;199;7;245
20/04/2019;172;4209;13;301;45;52;4;59;8;0;4863;290;11;409;;20/04/2019;85;1912;3;128;23;28;2;26;2;0;2209;129;18;197;;20/04/2019;87;2297;10;173;22;24;2;33;6;0;2654;160;10;246
21/04/2019;114;4272;5;136;13;4;0;1;8;0;4553;264;11;476;;21/04/2019;64;2133;4;57;7;2;0;0;4;0;2271;127;17;266;;21/04/2019;50;2139;1;79;6;2;0;1;4;0;2282;137;11;302
22/04/2019;156;5946;7;235;29;14;4;10;9;0;6410;404;17;732;;22/04/2019;92;3352;4;147;14;8;2;5;7;0;3631;227;17;539;;22/04/2019;64;2594;3;88;15;6;2;5;2;0;2779;177;11;412
23/04/2019;13;4202;18;583;147;285;108;354;35;0;5745;366;18;464;;23/04/2019;4;2256;11;322;82;166;66;201;13;0;3121;198;17;312;;23/04/2019;9;1946;7;261;65;119;42;153;22;0;2624;167;7;240
24/04/2019;46;4267;20;561;153;263;84;269;23;0;5686;354;18;496;;24/04/2019;31;2068;11;274;84;128;52;154;13;0;2815;174;18;305;;24/04/2019;15;2199;9;287;69;135;32;115;10;0;2871;180;8;251
25/04/2019;176;5188;10;227;21;19;5;27;9;0;5682;344;18;592;;25/04/2019;98;2584;5;103;11;8;3;16;4;0;2832;163;18;449;;25/04/2019;78;2604;5;124;10;11;2;11;5;0;2850;181;11;365
26/04/2019;69;3976;9;460;120;144;51;218;30;0;5077;311;17;432;;26/04/2019;31;2005;6;235;69;84;27;107;11;0;2575;157;17;237;;26/04/2019;38;1971;3;225;51;60;24;111;19;0;2502;154;10;217
27/04/2019;186;4269;27;276;40;64;6;51;23;0;4942;295;17;415;;27/04/2019;90;2227;13;146;19;34;3;23;12;0;2567;152;19;262;;27/04/2019;96;2042;14;130;21;30;3;28;11;0;2375;143;10;203
28/04/2019;175;5382;14;360;44;9;0;11;17;0;6012;352;18;640;;28/04/2019;125;3367;14;228;22;6;0;7;13;0;3782;219;17;468;;28/04/2019;50;2015;0;132;22;3;0;4;4;0;2230;133;11;188
29/04/2019;67;3980;19;536;158;307;100;353;23;0;5543;351;17;463;;29/04/2019;29;2000;6;296;75;161;58;194;7;0;2826;179;17;265;;29/04/2019;38;1980;13;240;83;146;42;159;16;0;2717;172;7;270
30/04/2019;62;4126;18;599;158;271;118;293;36;0;5681;354;18;494;;30/04/2019;42;2083;6;298;85;137;74;159;16;0;2900;182;18;328;;30/04/2019;20;2043;12;301;73;134;44;134;20;0;2781;172;7;277